This is the latest recevied weather packets stored in our database for station/object KB3KBR-WX. If no packets are shown the sender has not sent any weather packets the latest 10 day(s).
| Time | Temp. | Humidity | Pressure | Rain* | Wind** | Luminosity | Snow |
|---|---|---|---|---|---|---|---|
| 1777764446 | 4.44° C | 64% | 1012.3 hPa | 0 mm | - | - | - |
| 1777764146 | 4.44° C | 63% | 1012.3 hPa | 0 mm | - | - | - |
| 1777763846 | 4.44° C | 64% | 1012.3 hPa | 0 mm | - | - | - |
| 1777763516 | 4.44° C | 62% | 1012.2 hPa | 0 mm | - | - | - |
| 1777763186 | 4.44° C | 64% | 1012.2 hPa | 0 mm | - | - | - |
| 1777762886 | 4.44° C | 64% | 1012.3 hPa | 0 mm | - | - | - |
| 1777762586 | 5° C | 63% | 1012.1 hPa | 0 mm | - | - | - |
| 1777762256 | 5° C | 63% | 1012.2 hPa | 0 mm | - | - | - |
| 1777761596 | 5° C | 62% | 1012 hPa | 0 mm | - | - | - |
| 1777761296 | 5° C | 64% | 1012 hPa | 0 mm | - | - | - |
| 1777760967 | 5° C | 62% | 1012 hPa | 0 mm | - | - | - |
| 1777760667 | 5° C | 62% | 1012 hPa | 0 mm | - | - | - |
| 1777760337 | 5° C | 63% | 1012 hPa | 0 mm | - | - | - |
| 1777760006 | 5° C | 62% | 1012 hPa | 0 mm | - | - | - |
| 1777759676 | 5.56° C | 62% | 1012 hPa | 0 mm | - | - | - |
| 1777759376 | 5.56° C | 62% | 1012 hPa | 0 mm | - | - | - |
| 1777759046 | 5.56° C | 60% | 1012 hPa | 0 mm | - | - | - |
| 1777758716 | 5.56° C | 61% | 1012 hPa | 0 mm | - | - | - |
| 1777758386 | 5.56° C | 60% | 1011.9 hPa | 0 mm | - | - | - |
| 1777758056 | 5.56° C | 60% | 1011.9 hPa | 0 mm | - | - | - |
| 1777757726 | 5.56° C | 61% | 1011.9 hPa | 0 mm | - | - | - |
| 1777757426 | 5.56° C | 64% | 1011.9 hPa | 0 mm | - | - | - |
| 1777757126 | 5.56° C | 63% | 1011.8 hPa | 0 mm | - | - | - |
| 1777756796 | 5.56° C | 62% | 1011.8 hPa | 0 mm | - | - | - |
| 1777756496 | 5.56° C | 61% | 1011.7 hPa | 0 mm | - | - | - |
* Rain latest hour (hover to see other rain measurements)
** Current wind speed in m/s (hover to see current wind gust speed)